Satellite-Ground Cal/Val Site Overpasses Predictions

Prediction of Satellite NPP Overpassing Cal/Val Site: Antarctic Dome C

Ground Cal/Val Site Location: Latitude: -75.10, Longitude: 123.35; Satellite-Ground Site NADIR distance within 100 km.

Table of predicted overpasses for the next 14.0 days since TLE Epoch: 11/13/2015
Interval Starting Time Ending Time Minimum Distance Time Minimum Distance (km)
1 11/14/2015 14:45:00 11/14/2015 14:45:24 11/14/2015 14:45:12 53.89
2 11/15/2015 07:46:40 11/15/2015 07:47:00 11/15/2015 07:46:50 74.50
3 11/16/2015 07:27:47 11/16/2015 07:28:15 11/16/2015 07:28:01 33.31
4 11/18/2015 15:10:12 11/18/2015 15:10:22 11/18/2015 15:10:17 93.27
5 11/19/2015 14:51:12 11/19/2015 14:51:41 11/19/2015 14:51:27 18.17
6 11/21/2015 07:34:01 11/21/2015 07:34:30 11/21/2015 07:34:16 4.79
7 11/24/2015 14:57:27 11/24/2015 14:57:56 11/24/2015 14:57:42 18.74
8 11/25/2015 14:38:45 11/25/2015 14:38:59 11/25/2015 14:38:52 88.24
9 11/26/2015 07:40:17 11/26/2015 07:40:44 11/26/2015 07:40:31 39.93


NCC Satellite Cal/Val Overpasses Prediction Service
